Terminal Aerodrome Forecast
Issued by NWS Pittsburgh, PA

Current Version | Previous Version | Text Only | Print | Product List | Glossary Off
Versions: 1 2 3 4 5 6 7 8 9 10 11 12 13 14 15 16 17 18 19 20 21 22 23 24 25 26 27 28 29 30 31 32 33 34 35

000
FTUS41 KPBZ 262056 AAA
TAFPIT
TAF AMD
KPIT 262056Z 2621/2724 26009KT P6SM SKC
     FM270000 20006KT P6SM SKC
     FM271600 21006KT P6SM VCSH OVC045=

USA.gov is the U.S. government's official web portal to all federal, state and local government web resources and services.